{"data":{"norad_id":57380,"epoch":"2026-05-24T23:27:38.953152Z","epoch_age_seconds":77827,"freshness":"FRESH","line1":"1 57380U 23099BE  26144.97753418  .00000075  00000+0  12263-4 0  9996","line2":"2 57380  43.0029 141.6655 0001273 300.2465  59.8260 15.27575507158934","mean_motion":15.27575507,"eccentricity":0.0001273,"inclination_deg":43.0029,"raan_deg":141.6655,"arg_perigee_deg":300.2465,"mean_anomaly_deg":59.826,"bstar":1.2263e-5,"rev_number":15893,"period_min":94.26702597687,"perigee_km":482.1891190283,"apogee_km":483.93598043366,"semimajor_km":6861.199549731,"source":"CELESTRAK","updated_at":"2026-05-25T13:38:18.297030Z"}}